Location: Newark
(50.0336°N, 22.0047°E)
Time: 00:59:25
(UTC+00:00)

Envisat - Pass Details

Date: 27 January 2020
Orbit: 764 x 766 km, 98.1° (Epoch: 20 February)

Event Time Altitude Azimuth Distance (km) Brightness Sun altitude
Rises 16:14:21 0° 167° (SSE) 3,221 6.3 -9.4°
Reaches altitude 10° 16:16:39 10° 168° (SSE) 2,299 5.5 -9.7°
Maximum altitude 16:21:43 82° 255° (WSW) 781 3.1 -10.5°
Drops below altitude 10° 16:26:51 10° 344° (NNW) 2,315 5.5 -11.3°
Sets 16:29:10 0° 346° (NNW) 3,246 6.2 -11.6°
